Weather History for Monument Pass, CO

Change the Weather History Date:

Thursday, April 18, 2013

  Actual Average (KAPA) Record (KAPA)
Temperature  
Mean Temperature 21 °F -  
Max Temperature 28 °F 56 °F 78 °F (2001)
Min Temperature 14 °F 31 °F 8 °F (2013)
Degree Days  
Heating Degree Days 44    
Moisture  
Dew Point 15 °F    
Average Humidity 73    
Maximum Humidity 93    
Minimum Humidity 63    
Precipitation  
Precipitation 0.00 in - - ()
Sea Level Pressure  
Sea Level Pressure 30.04 in    
Wind  
Wind Speed 8 mph (NNW)    
Max Wind Speed 14 mph    
Max Gust Speed 17 mph    
Visibility 10 miles    
Events Snow    
Averages and records for this station are not official NWS values.
T = Trace of Precipitation, MM = Missing Value Source: NWS Daily Summary

Daily Weather History Graph

Daily Weather History Graph

Search for Another Location

Airport:

Trip Planner

Search our weather history database for the weather conditions in past years. The results will help you decide how hot, cold, wet, or windy it might be!

Date:

Astronomy

Apr. 18, 2013 Rise Set
Actual Time 6:16 AM MDT 7:39 PM MDT
Civil Twilight 5:49 AM MDT 8:07 PM MDT
Nautical Twilight 5:15 AM MDT 8:40 PM MDT
Astronomical Twilight 4:40 AM MDT 9:16 PM MDT
Moon 12:31 PM MDT (4/18) 1:54 AM MDT (4/18)
Length of Visible Light 14h 18m
Length of Day
13h 22m
First Quarter, 52% of the Moon is Illuminated
Apr 18
First Quarter
Apr 25
Full
May 2
Last Quarter
May 9
New
May 17
First Quarter

Hourly Weather History & Observations

Time (MDT) Temp. Windchill Dew Point Humidity Pressure Visibility Wind Dir Wind Speed Gust Speed Precip Events Conditions
8:34 AM 14.0 °F 3.9 °F 8.6 °F 79% 30.01 in 10.0 mi WNW 6.9 mph - N/A   Clear
8:54 AM 15.8 °F 7.2 °F 10.4 °F 79% 30.00 in 10.0 mi WNW 5.8 mph - N/A   Clear
9:14 AM 17.6 °F 10.7 °F 8.6 °F 68% 30.01 in 10.0 mi NNW 4.6 mph - N/A   Clear
9:34 AM 17.6 °F 10.7 °F 10.4 °F 73% 30.01 in 10.0 mi NW 4.6 mph - N/A   Clear
9:54 AM 19.4 °F 14.3 °F 10.4 °F 68% 30.01 in 10.0 mi NNW 3.5 mph - N/A   Clear
10:14 AM 21.2 °F 8.9 °F 10.4 °F 63% 30.01 in 10.0 mi North 12.7 mph - N/A   Scattered Clouds
10:34 AM 19.4 °F 7.9 °F 10.4 °F 68% 30.01 in 10.0 mi North 10.4 mph - N/A   Mostly Cloudy
10:54 AM 21.2 °F 9.5 °F 12.2 °F 68% 30.01 in 10.0 mi North 11.5 mph - N/A   Overcast
11:14 AM 21.2 °F 10.1 °F 12.2 °F 68% 30.01 in 10.0 mi North 10.4 mph - N/A Snow Light Snow
11:34 AM 21.2 °F 10.9 °F 12.2 °F 68% 30.01 in 10.0 mi North 9.2 mph - N/A   Mostly Cloudy
11:54 AM 21.2 °F 10.9 °F 12.2 °F 68% 30.01 in 10.0 mi North 9.2 mph - N/A   Scattered Clouds
12:14 PM 21.2 °F 11.7 °F 12.2 °F 68% 30.01 in 10.0 mi North 8.1 mph - N/A   Clear
12:34 PM 23.0 °F 13.9 °F 12.2 °F 63% 30.01 in 10.0 mi NNE 8.1 mph - N/A   Clear
12:54 PM 23.0 °F 12.4 °F 14.0 °F 68% 30.00 in 10.0 mi North 10.4 mph - N/A   Clear
1:14 PM 23.0 °F 13.9 °F 14.0 °F 68% 30.00 in 10.0 mi North 8.1 mph - N/A   Clear
1:34 PM 24.8 °F 17.9 °F 14.0 °F 64% 30.00 in 10.0 mi NNW 5.8 mph - N/A   Clear
1:54 PM 26.6 °F 16.8 °F 15.8 °F 64% 30.00 in 10.0 mi North 10.4 mph - N/A   Clear
2:34 PM 26.6 °F 18.2 °F 17.6 °F 69% 30.00 in 10.0 mi North 8.1 mph - N/A   Scattered Clouds
2:54 PM 26.6 °F 16.2 °F 17.6 °F 69% 30.00 in 10.0 mi NNE 11.5 mph - N/A   Clear
3:14 PM 26.6 °F 16.2 °F 17.6 °F 69% 30.01 in 10.0 mi NNE 11.5 mph 17.3 mph N/A   Scattered Clouds
3:34 PM 26.6 °F 18.2 °F 17.6 °F 69% 30.01 in 10.0 mi NNE 8.1 mph - N/A   Scattered Clouds
3:54 PM 26.6 °F 16.2 °F 17.6 °F 69% 30.01 in 10.0 mi NNE 11.5 mph - N/A   Scattered Clouds
4:13 PM 28.4 °F 18.5 °F 17.6 °F 64% 30.01 in 10.0 mi North 11.5 mph 16.1 mph N/A   Scattered Clouds
4:34 PM 26.6 °F 16.2 °F 17.6 °F 69% 30.02 in 10.0 mi NNE 11.5 mph 17.3 mph N/A   Scattered Clouds
4:54 PM 26.6 °F 15.7 °F 17.6 °F 69% 30.02 in 10.0 mi North 12.7 mph - N/A   Clear
5:13 PM 26.6 °F 15.2 °F 17.6 °F 69% 30.03 in 10.0 mi NNE 13.8 mph 17.3 mph N/A   Clear
5:34 PM 26.6 °F 16.2 °F 17.6 °F 69% 30.03 in 10.0 mi North 11.5 mph - N/A   Clear
5:54 PM 26.6 °F 15.7 °F 17.6 °F 69% 30.04 in 10.0 mi NNE 12.7 mph 16.1 mph N/A   Clear
6:14 PM 26.6 °F 15.2 °F 17.6 °F 69% 30.05 in 10.0 mi North 13.8 mph - N/A   Clear
6:34 PM 26.6 °F 16.8 °F 17.6 °F 69% 30.05 in 10.0 mi North 10.4 mph - N/A   Clear
6:54 PM 26.6 °F 19.1 °F 17.6 °F 69% 30.05 in 10.0 mi North 6.9 mph - N/A   Clear
7:14 PM 24.8 °F 17.9 °F 17.6 °F 74% 30.06 in 10.0 mi NNE 5.8 mph - N/A   Clear
7:34 PM 23.0 °F 18.4 °F 17.6 °F 80% 30.07 in 10.0 mi North 3.5 mph - N/A   Clear
7:54 PM 21.2 °F 16.4 °F 17.6 °F 86% 30.07 in 10.0 mi North 3.5 mph - N/A   Clear
8:14 PM 21.2 °F 14.9 °F 17.6 °F 86% 30.07 in 10.0 mi North 4.6 mph - N/A   Clear
8:34 PM 21.2 °F 14.9 °F 15.8 °F 80% 30.08 in 10.0 mi North 4.6 mph - N/A   Clear
8:54 PM 21.2 °F 16.4 °F 17.6 °F 86% 30.10 in 10.0 mi NW 3.5 mph - N/A   Clear
9:34 PM 19.4 °F 10.4 °F 15.8 °F 86% 30.11 in 10.0 mi WSW 6.9 mph - N/A   Clear
9:54 PM 19.4 °F 9.5 °F 17.6 °F 93% 30.11 in 10.0 mi WSW 8.1 mph - N/A   Clear
10:14 PM 19.4 °F 8.6 °F 17.6 °F 93% 30.11 in 10.0 mi WSW 9.2 mph - N/A   Clear
10:34 PM 19.4 °F 9.5 °F 15.8 °F 86% 30.11 in 10.0 mi West 8.1 mph - N/A   Clear
10:53 PM 19.4 °F 9.5 °F 14.0 °F 80% 30.10 in 10.0 mi West 8.1 mph - N/A   Clear
11:14 PM 19.4 °F 9.5 °F 12.2 °F 74% 30.10 in 10.0 mi West 8.1 mph - N/A   Clear
11:34 PM 19.4 °F 8.6 °F 10.4 °F 68% 30.10 in 10.0 mi West 9.2 mph - N/A   Clear
11:53 PM 19.4 °F 7.9 °F 10.4 °F 68% 30.10 in 10.0 mi WSW 10.4 mph - N/A   Clear